Regional Weather Roundup
Issued by NWS Cleveland, OH

Home | Current Version | Previous Version | Graphics & Text | Print | Product List | Glossary On
Versions: 1 2 3 4 5 6 7 8 9 10 11 12 13 14 15 16 17 18 19 20 21 22 23 24 25 26 27 28 29 30 31 32 33 34 35 36 37 38 39 40 41 42 43 44 45 46 47 48 49 50
000
ASUS41 KCLE 272110
RWRCLE
OHIO REGIONAL WEATHER ROUNDUP
NATIONAL WEATHER SERVICE WILMINGTON, OH
400 PM EST FRI FEB 27 2015

NOTE: "FAIR" INDICATES FEW OR NO CLOUDS BELOW 12,000 FEET WITH NO
SIGNIFICANT WEATHER AND/OR OBSTRUCTIONS TO VISIBILITY.

OHZ001>008-015>018-024>027-034-035-043-044-272200-
   NORTHWEST OHIO

CITY           SKY/WX    TMP DP  RH WIND       PRES   REMARKS
DEFIANCE       SUNNY     18  -1  43 SW6       30.59S WCI  10
FINDLAY        SUNNY     15  -1  49 W8        30.58R WCI   4
TOLEDO EXPRESS SUNNY     15  -3  44 W10       30.59R WCI   2
TOLEDO EXEC    SUNNY     14   0  53 SW12      30.60R WCI   0
LIMA           SUNNY     16  -2  45 NW9       30.57R WCI   4
$$

OHZ009>014-019>023-028>033-038-089-272200-
   NORTHEAST OHIO

CITY           SKY/WX    TMP DP  RH WIND       PRES   REMARKS
CLE-HOPKINS    PTSUNNY   14  -1  51 W9        30.60S WCI   2
CLE-LAKEFRONT  PTSUNNY   14   3  61 W6        30.59S WCI   5
CUY CO. ARPT   MOSUNNY   16   3  57 NW14      30.57R WCI   1
LORAIN-ELYRIA  MOSUNNY   13  -1  54 SW6       30.58R WCI   4
ASHTABULA      SUNNY     12  -4  48 W10       30.56R WCI  -1
AKRON-CANTON   MOSUNNY   15  -3  44 NW7       30.54R WCI   5
WOOSTER        MOSUNNY   14  -1  51 NW7       30.55R WCI   4
MANSFIELD      SUNNY     14  -1  51 NW7       30.54R WCI   4
YOUNGSTOWN     PTSUNNY   13  -2  51 NW6       30.52R WCI   4
$$

OHZ042-051>053-060>062-070>072-077>081-272200-
  SOUTHWEST OHIO

CITY           SKY/WX    TMP DP  RH WIND       PRES   REMARKS
CINC-COVINGTON MOSUNNY   21   0  39 CALM      30.57R
CINC-LUNKEN    MOSUNNY   22   1  40 N5        30.62R WCI  16
HAMILTON       SUNNY     19   2  47 NW8       30.62R WCI   9
DAYTON         PTSUNNY   18   5  57 NW7       30.58R WCI   9
WRIGHT-PAT AFB MOSUNNY   18  -1  42 N9        30.58S WCI   7
DAYTON GENERAL MOSUNNY   19   1  45 W3        30.57R
WILMINGTON     FAIR      16  -2  45 NE6       30.56R WCI   7
$$

OHZ036-037-039>041-045>050-054>059-063>069-073>076-082>088-272200-
  CENTRAL AND SOUTHEAST OHIO

CITY           SKY/WX    TMP DP  RH WIND       PRES   REMARKS
COLUMBUS       MOSUNNY   17  -1  45 CALM      30.58R
OSU AIRPORT    MOSUNNY   16   1  51 N9        30.58R WCI   4
BOLTON FIELD   SUNNY     16   0  48 NW9       30.59R WCI   4
RICKENBACK AFB PTSUNNY   18   1  48 W9        30.59S WCI   7
NEWARK         CLOUDY    17   4  56 N3        30.57S
MARION         SUNNY     14  -2  49 W7        30.58R WCI   4
LANCASTER      CLOUDY    17   4  56 VRB5      30.58S WCI  10
ZANESVILLE     CLOUDY    17   0  47 W5        30.57R WCI  10
NEW PHILLY     SUNNY     18  -1  43 N9        30.58R WCI   7
$$


USA.gov is the U.S. government's official web portal to all federal, state and local government web resources and services.